Date String (YYYY-MM-DD hh:mm:ss) UTC,Instrument flags,absolute air pressure of the measurement (hPa),sample flow rate (lpm),inlet stack bypass flow (lpm),air temperature of the measurement (°C),ambient temperature measured by the external sensor (°C),aerosol sample conditioner tube jacket temperature (°C),OPC LED temperature (°C),internal box temperature (°C),relative humidity of the measurement (%),span deviation,mass concentration of particles derived from Lorenz-Mie calculation of OPC scattering (μg/m³),mass concentration of particles derived from Lorenz-Mie calculation of OPC scattering (μg/m³),mass concentration of particles derived from Lorenz-Mie calculation of OPC scattering (μg/m³)
DateTimeUTC,F1_M11,P_M11,Q1_M11,Q2_M11,T1_M11,T2_M11,T3_M11,T4_M11,T5_M11,U1_M11,ZSPAN_M11,X0_M11,X2_M11,X1_M11
2023-06-14 02:00:00,SystemResetWarning,0828.3,5.01,000.00,030.0,028.7,000.0,038.5,031.6,24.5,0000.0,0005.46,0002.34,0001.88
2023-06-14 02:01:00,SystemResetWarning,0828.3,5.00,000.00,030.1,028.7,000.0,038.5,031.6,24.7,0000.0,0005.44,0002.34,0001.89
2023-06-14 02:02:00,SystemResetWarning,0828.3,5.01,000.00,030.1,028.7,000.0,038.5,031.7,24.5,0000.0,0004.93,0002.28,0001.89
2023-06-14 02:03:00,SystemResetWarning,0828.3,5.00,000.00,030.1,028.8,000.0,038.5,031.7,24.8,0000.0,0004.50,0002.27,0001.89
2023-06-14 02:04:00,SystemResetWarning,0828.3,5.00,000.00,030.1,028.8,000.0,038.6,031.7,25.1,0000.0,0004.41,0002.23,0001.88
2023-06-14 02:05:00,SystemResetWarning,0828.3,5.00,000.00,030.1,028.8,000.0,038.6,031.7,25.2,0000.0,0004.32,0002.21,0001.87
2023-06-14 02:06:00,SystemResetWarning,0828.3,4.98,000.00,030.2,027.9,000.0,038.6,031.7,25.3,0000.0,0004.28,0002.23,0001.86
2023-06-14 02:07:00,SystemResetWarning,0828.4,5.00,000.00,030.1,025.7,000.0,038.5,031.6,25.4,0000.0,0004.25,0002.22,0001.84
2023-06-14 02:08:00,SystemResetWarning,0828.3,5.02,000.00,030.1,025.2,000.0,038.5,031.5,25.3,0000.0,0004.52,0002.19,0001.83
2023-06-14 02:09:00,SystemResetWarning,0828.3,5.00,000.00,030.0,025.4,000.0,038.5,031.3,25.2,0000.0,0003.55,0002.14,0001.79
2023-06-14 02:10:00,SystemResetWarning,0828.3,5.00,000.00,029.9,025.8,000.0,038.4,031.2,25.2,0000.0,0003.42,0002.10,0001.78
2023-06-14 02:11:00,SystemResetWarning,0828.3,5.00,000.00,029.8,026.2,000.0,038.4,031.2,25.4,0000.0,0003.38,0002.09,0001.77
2023-06-14 02:12:00,SystemResetWarning,0828.4,5.00,000.00,029.8,026.6,000.0,038.4,031.2,25.6,0000.0,0003.39,0002.10,0001.77
2023-06-14 02:13:00,SystemResetWarning,0828.4,5.00,000.00,029.8,027.0,000.0,038.4,031.2,25.8,0000.0,0003.39,0002.08,0001.77
2023-06-14 02:14:00,SystemResetWarning,0828.4,5.00,000.00,029.8,027.3,000.0,038.4,031.3,25.8,0000.0,0003.43,0002.08,0001.77
2023-06-14 02:15:00,SystemResetWarning,0828.4,5.00,000.00,029.8,027.5,000.0,038.4,031.3,25.8,0000.0,0003.51,0002.13,0001.77
2023-06-14 02:16:00,SystemResetWarning,0828.4,5.00,000.00,029.8,027.7,000.0,038.4,031.3,25.7,0000.0,0003.70,0002.14,0001.79
2023-06-14 02:17:00,SystemResetWarning,0828.4,5.00,000.00,029.8,027.9,000.0,038.4,031.3,25.8,0000.0,0003.57,0002.09,0001.80
2023-06-14 02:18:00,SystemResetWarning,0828.4,5.00,000.00,029.8,028.0,000.0,038.4,031.3,26.0,0000.0,0003.59,0002.09,0001.81
2023-06-14 02:19:00,SystemResetWarning,0828.4,4.99,000.00,029.8,028.1,000.0,038.4,031.4,25.9,0000.0,0003.45,0002.12,0001.81
2023-06-14 02:20:00,SystemResetWarning,0828.4,4.99,000.00,029.8,028.2,000.0,038.4,031.4,26.2,0000.0,0003.24,0002.12,0001.82
2023-06-14 02:21:00,SystemResetWarning,0828.4,5.01,000.00,029.8,028.3,000.0,038.4,031.4,26.3,0000.0,0003.21,0002.11,0001.82
2023-06-14 02:22:00,SystemResetWarning,0828.4,5.00,000.00,029.8,028.3,000.0,038.4,031.4,26.1,0000.0,0003.22,0002.08,0001.81
2023-06-14 02:23:00,SystemResetWarning,0828.4,5.00,000.00,029.8,028.4,000.0,038.4,031.4,26.1,0000.0,0003.44,0002.09,0001.79
2023-06-14 02:24:00,SystemResetWarning,0828.4,5.00,000.00,029.8,028.4,000.0,038.4,031.4,26.1,0000.0,0003.57,0002.12,0001.78
2023-06-14 02:25:00,SystemResetWarning,0828.4,4.99,000.00,029.8,028.5,000.0,038.4,031.4,26.0,0000.0,0003.58,0002.10,0001.78
2023-06-14 02:26:00,SystemResetWarning,0828.4,4.98,000.00,029.9,028.5,000.0,038.4,031.4,25.9,0000.0,0003.70,0002.08,0001.78
2023-06-14 02:27:00,SystemResetWarning,0828.4,5.00,000.00,029.9,028.5,000.0,038.4,031.4,25.7,0000.0,0004.46,0002.11,0001.77
2023-06-14 02:28:00,SystemResetWarning,0828.4,5.00,000.00,029.9,028.5,000.0,038.4,031.4,25.6,0000.0,0004.41,0002.11,0001.76
2023-06-14 02:29:00,SystemResetWarning,0828.4,5.02,000.00,029.9,028.6,000.0,038.4,031.4,25.3,0000.0,0004.41,0002.10,0001.75
2023-06-14 02:30:00,SystemResetWarning,0828.4,4.99,000.00,029.9,028.6,000.0,038.4,031.4,25.3,0000.0,0004.29,0002.09,0001.76
2023-06-14 02:31:00,SystemResetWarning,0828.4,5.00,000.00,029.9,028.5,000.0,038.4,031.4,25.4,0000.0,0004.32,0002.12,0001.76
2023-06-14 02:32:00,SystemResetWarning,0828.4,4.98,000.00,029.9,026.6,000.0,038.4,031.4,25.6,0000.0,0004.93,0002.17,0001.76
2023-06-14 02:33:00,SystemResetWarning,0828.4,5.03,000.00,029.9,025.1,000.0,038.3,031.3,25.3,0000.0,0005.03,0002.17,0001.75
2023-06-14 02:34:00,SystemResetWarning,0828.4,5.00,000.00,029.9,024.9,000.0,038.3,031.2,25.4,0000.0,0004.74,0002.12,0001.75
2023-06-14 02:35:00,SystemResetWarning,0828.4,5.00,000.00,029.7,025.2,000.0,038.3,031.0,25.8,0000.0,0004.56,0002.09,0001.76
2023-06-14 02:36:00,SystemResetWarning,0828.4,5.00,000.00,029.7,025.7,000.0,038.3,030.9,25.7,0000.0,0004.52,0002.11,0001.77
2023-06-14 02:37:00,SystemResetWarning,0828.4,5.00,000.00,029.6,026.1,000.0,038.3,031.0,25.6,0000.0,0005.07,0002.08,0001.77
2023-06-14 02:38:00,SystemResetWarning,0828.4,5.00,000.00,029.6,026.5,000.0,038.2,031.0,25.4,0000.0,0004.15,0002.07,0001.78
2023-06-14 02:39:00,SystemResetWarning,0828.4,4.99,000.00,029.6,026.9,000.0,038.2,031.1,25.3,0000.0,0004.21,0002.08,0001.77
2023-06-14 02:40:00,SystemResetWarning,0828.4,4.99,000.00,029.6,027.1,000.0,038.2,031.1,25.6,0000.0,0004.23,0002.11,0001.76
2023-06-14 02:41:00,SystemResetWarning,0828.5,4.99,000.00,029.6,027.4,000.0,038.2,031.1,25.6,0000.0,0004.74,0002.09,0001.76
2023-06-14 02:42:00,SystemResetWarning,0828.5,5.01,000.00,029.6,027.6,000.0,038.2,031.1,25.6,0000.0,0005.19,0002.09,0001.76
2023-06-14 02:43:00,SystemResetWarning,0828.6,5.01,000.00,029.6,027.7,000.0,038.2,031.2,25.7,0000.0,0004.64,0002.07,0001.76
2023-06-14 02:44:00,SystemResetWarning,0828.5,4.99,000.00,029.6,027.9,000.0,038.2,031.2,25.8,0000.0,0004.56,0002.13,0001.78
2023-06-14 02:45:00,SystemResetWarning,0828.6,5.00,000.00,029.7,028.0,000.0,038.2,031.3,25.8,0000.0,0004.60,0002.16,0001.79
2023-06-14 02:46:00,SystemResetWarning,0828.5,5.00,000.00,029.7,028.1,000.0,038.2,031.3,25.7,0000.0,0005.43,0002.18,0001.79
2023-06-14 02:47:00,SystemResetWarning,0828.6,5.01,000.00,029.7,028.2,000.0,038.2,031.3,25.7,0000.0,0005.93,0002.20,0001.79
2023-06-14 02:48:00,SystemResetWarning,0828.6,5.01,000.00,029.7,028.2,000.0,038.2,031.3,25.6,0000.0,0005.55,0002.26,0001.81
2023-06-14 02:49:00,SystemResetWarning,0828.6,5.00,000.00,029.8,028.3,000.0,038.2,031.4,25.6,0000.0,0005.41,0002.26,0001.80
2023-06-14 02:50:00,SystemResetWarning,0828.6,5.00,000.00,029.8,028.4,000.0,038.2,031.4,25.5,0000.0,0005.42,0002.25,0001.79
2023-06-14 02:51:00,SystemResetWarning,0828.6,5.00,000.00,029.8,028.4,000.0,038.3,031.4,25.5,0000.0,0005.40,0002.23,0001.79
2023-06-14 02:52:00,SystemResetWarning,0828.6,5.00,000.00,029.8,028.4,000.0,038.3,031.4,25.7,0000.0,0004.93,0002.22,0001.78
2023-06-14 02:53:00,SystemResetWarning,0828.6,5.00,000.00,029.8,028.5,000.0,038.3,031.5,25.6,0000.0,0004.34,0002.21,0001.77
2023-06-14 02:54:00,SystemResetWarning,0828.6,5.00,000.00,029.9,028.5,000.0,038.3,031.5,25.5,0000.0,0004.31,0002.18,0001.76
2023-06-14 02:55:00,SystemResetWarning,0828.6,4.99,000.00,029.9,028.5,000.0,038.3,031.5,25.4,0000.0,0004.32,0002.18,0001.75
2023-06-14 02:56:00,SystemResetWarning,0828.7,5.00,000.00,029.9,028.5,000.0,038.3,031.5,25.3,0000.0,0004.47,0002.22,0001.76
2023-06-14 02:57:00,SystemResetWarning,0828.7,5.00,000.00,029.9,028.6,000.0,038.4,031.5,25.2,0000.0,0003.94,0002.25,0001.79
2023-06-14 02:58:00,SystemResetWarning,0828.7,5.00,000.00,029.9,028.6,000.0,038.4,031.6,25.0,0000.0,0003.36,0002.26,0001.83
2023-06-14 02:59:00,SystemResetWarning,0828.6,5.00,000.00,029.9,028.6,000.0,038.4,031.6,25.0,0000.0,0003.44,0002.26,0001.83
